CANX-2

Last updated on Thu Nov 21 2024 00:03:39 GMT+0000 (Coordinated Universal Time)

1 32790U 08021H 24325.33361722 .00007298 00000+0 61664-3 0 9996 2 32790 97.7921 288.4653 0011329 160.0579 200.1088 14.98340509898645
UTC large
Height (km)
Speed (km/s)
/
Latitude / Longitude
Inclination (degrees)
Orbital Period (minutes)
Azimuth
Elevation
Range (km)
Doppler Factor

Next 0 passes for location: London (51.5072 / 0.1276)

Sorry there are no passes over London.